Location: Radomski Observatory
(40.2854°N, 79.5145°W)
Time: 16:42:04
(UTC-04:00)

Amateur Radio Satellites - All Passes

Search period start: 25 June 2017 16:12
Search period end: 26 June 2017 16:12
Location: Radomski Observatory, 40.2854°N, 79.5145°W

Satellite Date Start Highest point End Downlink Frequencies (MHz)
Time Altitude Azimuth
AO-7 25 Jun 16:17:10 16:25:25 68° 255° (WSW) 16:33:47 .
MOZHAYETS 4 25 Jun 16:27:45 16:32:15 53° 100° (E) 16:36:42
Tancredo 1 25 Jun 16:32:03 16:33:51 15° 229° (SW) 16:35:39 437.200
ITUPSAT 1 25 Jun 16:45:55 16:50:41 69° 286° (WNW) 16:55:26 437.325
ISS 25 Jun 16:49:03 16:51:45 23° 227° (SW) 16:54:25 437.550
BEESAT 25 Jun 16:56:04 17:00:44 52° 288° (WNW) 17:05:20 436.000
CUTE-I 25 Jun 17:06:27 17:07:02 10° 57° (ENE) 17:07:38 437.470
CUBESAT XI-V 25 Jun 17:08:49 17:12:40 26° 95° (E) 17:16:32 437.345
DOVE 4 25 Jun 17:19:27 17:22:43 23° 68° (ENE) 17:26:05 437.250
LilacSat-2 25 Jun 17:24:25 17:25:33 11° 64° (ENE) 17:26:40 437.200
XW-2B 25 Jun 17:25:40 17:26:24 10° 64° (ENE) 17:27:06 145.730 - 145.750
XW-2C 25 Jun 17:39:21 17:41:43 16° 67° (ENE) 17:44:04 145.795 - 145.815
KAITUO 1B 25 Jun 17:53:26 17:55:59 17° 68° (ENE) 17:58:32 145.475/437.950
KKS-1 25 Jun 18:01:52 18:06:20 64° 101° (ESE) 18:10:47 437.445
MOZHAYETS 4 25 Jun 18:06:14 18:08:57 16° 296° (WNW) 18:11:39
AO-7 25 Jun 18:17:30 18:19:36 11° 273° (W) 18:21:44 .
HO-68 25 Jun 18:26:09 18:31:42 25° 59° (ENE) 18:37:17 435.675
NUDT-PHONESAT 25 Jun 18:28:00 18:31:35 44° 73° (ENE) 18:35:10 437.300
STARS 25 Jun 18:31:44 18:36:07 57° 101° (E) 18:40:28 437.465
CUTE-I 25 Jun 18:40:50 18:46:08 76° 75° (ENE) 18:51:30 437.470
XW-2F 25 Jun 18:43:14 18:47:03 89° 258° (WSW) 18:50:54 145.980 - 146.000
CUBESAT XI-V 25 Jun 18:46:02 18:50:00 29° 291° (WNW) 18:53:57 437.345
XW-2D 25 Jun 18:47:13 18:51:02 73° 259° (WSW) 18:54:53 145.860 - 145.880
LilacSat-2 25 Jun 18:55:32 18:59:20 55° 260° (W) 19:03:09 437.200
XW-2B 25 Jun 18:56:16 19:00:04 57° 260° (W) 19:03:51 145.730 - 145.750
DOVE 4 25 Jun 18:56:44 19:00:18 28° 265° (W) 19:03:58 437.250
XW-2C 25 Jun 19:12:03 19:15:36 35° 262° (W) 19:19:10 145.795 - 145.815
XW-2A 25 Jun 19:18:39 19:21:19 21° 70° (ENE) 19:24:00 145.665 - 145.685
STRAND 1 25 Jun 19:22:16 19:23:29 11° 89° (E) 19:24:41 437.568
KAITUO 1B 25 Jun 19:26:23 19:29:45 30° 263° (W) 19:33:08 145.475/437.950
SEEDS 25 Jun 19:28:52 19:32:28 28° 70° (ENE) 19:36:05 437.485
KKS-1 25 Jun 19:40:20 19:42:20 13° 298° (WNW) 19:44:20 437.445
CUTE 1.7 + AOD 2 25 Jun 19:45:39 19:49:53 72° 76° (ENE) 19:54:08 437.475
AO-73 25 Jun 19:52:44 19:55:08 14° 64° (ENE) 19:57:32 145.935
CUBEBUG 2 25 Jun 19:57:03 20:01:28 49° 73° (ENE) 20:06:01 437.445
NUDT-PHONESAT 25 Jun 20:04:20 20:05:41 12° 269° (W) 20:07:02 437.300
STARS 25 Jun 20:09:37 20:11:57 14° 297° (WNW) 20:14:17 437.465
HO-68 25 Jun 20:11:41 20:18:49 67° 257° (WSW) 20:26:01 435.675
PCSat 25 Jun 20:12:59 20:15:44 14° 40° (NE) 20:18:28 145.827
Oscar 11 25 Jun 20:19:03 20:22:10 19° 67° (ENE) 20:25:16 .
AAUSAT CUBESAT 2 25 Jun 20:19:15 20:23:13 48° 74° (ENE) 20:27:12 437.432
CUTE-I 25 Jun 20:24:27 20:26:45 13° 270° (W) 20:29:03 437.470
ZACube-1 25 Jun 20:25:48 20:29:53 34° 70° (ENE) 20:34:01 437.345
UWE-3 25 Jun 20:30:29 20:35:01 67° 75° (ENE) 20:39:40 435.000/436.395/437.385
XW-2A 25 Jun 20:51:23 20:53:58 20° 265° (W) 20:56:34 145.665 - 145.685
STRAND 1 25 Jun 20:58:05 21:03:16 83° 283° (WNW) 21:08:24 437.568
RS-15 25 Jun 21:04:41 21:16:15 55° 111° (ESE) 21:28:06 29.354- 29.394
SEEDS 25 Jun 21:04:48 21:08:08 23° 265° (W) 21:11:28 437.485
NO-84 25 Jun 21:10:55 21:13:18 16° 122° (ESE) 21:15:46 435.350 FM
EO-88 25 Jun 21:11:38 21:11:45 10° 64° (ENE) 21:11:53 145.990 - 145.960
BEESAT 3 25 Jun 21:14:03 21:17:48 44° 117° (ESE) 21:21:39 437.485
AO-85 25 Jun 21:18:02 21:22:08 90° 16° (NNE) 21:26:06 145.980
AO-73 25 Jun 21:26:21 21:30:49 60° 260° (W) 21:35:21 145.935
YUBILEINY 25 Jun 21:27:02 21:33:58 27° 82° (E) 21:40:55 435.215
FO-29 25 Jun 21:31:16 21:35:53 16° 87° (E) 21:40:26 435.910
CUBEBUG 2 25 Jun 21:35:30 21:38:21 16° 269° (W) 21:41:15 437.445
DELFI C3 25 Jun 21:44:59 21:48:40 41° 73° (ENE) 21:52:22 145.870
Oscar 11 25 Jun 21:54:00 21:58:01 37° 263° (W) 22:02:04 .
PCSat 25 Jun 21:54:37 22:00:04 76° 60° (ENE) 22:05:28 145.827
AAUSAT CUBESAT 2 25 Jun 21:57:02 21:58:56 13° 269° (W) 22:00:49 437.432
ZACube-1 25 Jun 22:02:35 22:06:11 23° 266° (W) 22:09:50 437.345
UWE-3 25 Jun 22:10:20 22:11:56 12° 271° (W) 22:13:32 435.000/436.395/437.385
BEESAT 2 25 Jun 22:13:07 22:17:03 69° 119° (ESE) 22:21:04 435.950
TIGRISAT 25 Jun 22:14:31 22:17:06 15° 91° (E) 22:19:37 435.000
O/OREOS (USA 219) 25 Jun 22:17:42 22:22:15 89° 112° (ESE) 22:26:48 437.305
SO-50 25 Jun 22:34:37 22:37:53 19° 44° (NE) 22:41:09 436.795
STRAND 1 25 Jun 22:40:26 22:41:35 11° 302° (WNW) 22:42:43 437.568
ESTCUBE 1 25 Jun 22:40:35 22:42:38 13° 63° (ENE) 22:44:40 437.505/2401.250
EO-88 25 Jun 22:41:20 22:44:56 54° 260° (W) 22:48:33 145.990 - 145.960
NO-84 25 Jun 22:46:29 22:50:22 63° 320° (NW) 22:54:33 435.350 FM
BEESAT 3 25 Jun 22:52:44 22:55:36 19° 314° (NW) 22:58:30 437.485
UNISAT 6 25 Jun 22:55:13 22:59:40 43° 98° (E) 23:04:01 437.425
AO-85 25 Jun 23:02:08 23:03:05 11° 320° (NW) 23:04:01 145.980
LO-87 25 Jun 23:03:46 23:06:53 30° 72° (ENE) 23:10:03 145.935 - 145.965
FO-29 25 Jun 23:13:54 23:21:48 85° 104° (ESE) 23:29:34 435.910
RS-15 25 Jun 23:17:12 23:28:58 51° 314° (NW) 23:40:56 29.354- 29.394
M-CUBED/EXP-1 PRIME 25 Jun 23:18:22 23:22:06 70° 289° (WNW) 23:26:07 437.505
YUBILEINY 25 Jun 23:21:19 23:30:01 64° 281° (W) 23:38:49 435.215
DELFI C3 25 Jun 23:21:39 23:23:38 13° 268° (W) 23:25:36 145.870
PRISM 25 Jun 23:37:36 23:41:38 62° 286° (WNW) 23:45:43 437.425
PCSat 25 Jun 23:40:04 23:42:45 14° 257° (WSW) 23:45:25 145.827
TIGRISAT 25 Jun 23:49:33 23:54:06 53° 287° (WNW) 23:58:32 435.000
BEESAT 2 25 Jun 23:53:08 23:55:16 14° 318° (NW) 23:57:25 435.950
QB50P2 25 Jun 23:54:00 23:55:12 11° 90° (E) 23:56:23 145.880/145.840
O/OREOS (USA 219) 26 Jun 00:01:22 00:02:19 11° 309° (NW) 00:03:16 437.305
AIST 2D 26 Jun 00:01:57 00:04:54 25° 96° (E) 00:07:48 435.315
SO-50 26 Jun 00:14:13 00:18:41 57° 242° (WSW) 00:23:08 436.795
ESTCUBE 1 26 Jun 00:14:25 00:18:53 64° 259° (W) 00:23:21 437.505/2401.250
VELOX 1 26 Jun 00:15:24 00:19:13 30° 69° (ENE) 00:23:04 145.980
EO-79 26 Jun 00:16:47 00:19:51 19° 93° (E) 00:22:53 145.935-145.965
50 SAT 26 Jun 00:23:35 00:25:10 13° 67° (ENE) 00:26:46 437.505
NO-84 26 Jun 00:25:57 00:28:43 17° 340° (NNW) 00:31:34 435.350 FM
DUCHIFAT 1 26 Jun 00:30:16 00:33:33 21° 94° (E) 00:36:48 145.980
UNISAT 6 26 Jun 00:32:45 00:36:01 19° 295° (WNW) 00:39:14 437.425
SPROUT 26 Jun 00:33:53 00:38:01 51° 73° (ENE) 00:42:12 437.525
DX 1 26 Jun 00:35:15 00:38:02 17° 65° (ENE) 00:40:49 434.975-435.025
LO-87 26 Jun 00:38:17 00:40:23 15° 267° (W) 00:42:30 145.935 - 145.965
NANOSAT C BR1 26 Jun 00:38:35 00:42:20 30° 96° (E) 00:46:04 145.865
UKube-1 26 Jun 00:51:44 00:54:32 17° 65° (ENE) 00:57:20 .
FO-29 26 Jun 01:00:17 01:05:51 22° 302° (WNW) 01:11:27 435.910
POLYITAN 1 26 Jun 01:16:12 01:20:31 89° 298° (WNW) 01:24:46 437.675
YUBILEINY 26 Jun 01:25:46 01:28:50 12° 304° (WNW) 01:31:56 435.215
QB50P2 26 Jun 01:27:08 01:31:22 61° 286° (WNW) 01:35:33 145.880/145.840
AIST 2D 26 Jun 01:35:32 01:37:55 17° 291° (WNW) 01:40:17 435.315
RS-15 26 Jun 01:36:18 01:45:32 23° 346° (NNW) 01:54:44 29.354- 29.394
BUGSAT 1 26 Jun 01:38:32 01:42:29 37° 98° (E) 01:46:24 437.445
EO-79 26 Jun 01:51:47 01:55:41 35° 289° (WNW) 01:59:34 145.935-145.965
VELOX 1 26 Jun 01:52:11 01:55:40 23° 265° (W) 01:59:11 145.980
50 SAT 26 Jun 01:54:35 01:57:39 32° 262° (W) 02:00:44 437.505
Oscar 19 26 Jun 01:55:10 01:59:07 22° 94° (E) 02:03:02 437.125/150
DUCHIFAT 1 26 Jun 02:05:28 02:09:14 31° 290° (WNW) 02:12:57 145.980
NO-84 26 Jun 02:06:27 02:07:49 11° 2° (N) 02:09:13 435.350 FM
DX 1 26 Jun 02:09:45 02:13:51 43° 261° (W) 02:18:00 434.975-435.025
SPROUT 26 Jun 02:12:12 02:14:13 13° 269° (W) 02:16:14 437.525
NANOSAT C BR1 26 Jun 02:14:32 02:17:53 23° 292° (WNW) 02:21:12 145.865
ITUPSAT 1 26 Jun 02:16:37 02:19:18 15° 62° (ENE) 02:21:59 437.325
BEESAT 26 Jun 02:25:40 02:28:56 19° 64° (ENE) 02:32:14 436.000
UKube-1 26 Jun 02:26:08 02:30:12 42° 261° (W) 02:34:18 .
Gurwin Techsat 1B 26 Jun 02:50:44 02:55:52 47° 99° (E) 03:00:58 435.225
BUGSAT 1 26 Jun 03:14:34 03:17:33 19° 294° (WNW) 03:20:31 437.445
MOZHAYETS 4 26 Jun 03:28:45 03:33:11 47° 72° (ENE) 03:37:39
Oscar 19 26 Jun 03:33:46 03:38:35 42° 290° (WNW) 03:43:23 437.125/150
NO-84 26 Jun 03:43:43 03:46:53 19° 23° (NNE) 03:50:02 435.350 FM
ITUPSAT 1 26 Jun 03:51:50 03:56:35 63° 258° (WSW) 04:01:23 437.325
RS-15 26 Jun 03:54:12 04:04:00 26° 22° (NNE) 04:13:30 29.354- 29.394
BEESAT 26 Jun 04:01:42 04:06:20 48° 260° (W) 04:10:59 436.000
CUBESAT XI-V 26 Jun 04:11:39 04:15:25 25° 68° (ENE) 04:19:12 437.345
ITAMSAT 1 26 Jun 04:12:06 04:16:52 34° 97° (E) 04:21:35 435.822/435.867
AO-7 26 Jun 04:19:27 04:27:21 43° 100° (E) 04:35:10 .
Gurwin Techsat 1B 26 Jun 04:31:25 04:35:28 23° 296° (WNW) 04:39:30 435.225
KKS-1 26 Jun 04:59:06 05:03:25 55° 73° (ENE) 05:07:46 437.445
MOZHAYETS 4 26 Jun 05:07:38 05:10:34 17° 268° (W) 05:13:31
NO-84 26 Jun 05:20:44 05:25:08 74° 41° (NE) 05:29:24 435.350 FM
STARS 26 Jun 05:27:33 05:31:43 46° 72° (ENE) 05:35:57 437.465
BEESAT 3 26 Jun 05:31:26 05:34:44 24° 48° (NE) 05:37:59 437.485
CUBESAT XI-V 26 Jun 05:48:31 05:52:38 31° 264° (W) 05:56:46 437.345
AO-85 26 Jun 05:49:02 05:53:07 62° 56° (NE) 05:57:29 145.980
ITAMSAT 1 26 Jun 05:51:44 05:56:12 29° 294° (WNW) 06:00:39 435.822/435.867
RS-15 26 Jun 06:07:27 06:19:36 65° 52° (NE) 06:31:04 29.354- 29.394
AO-7 26 Jun 06:12:17 06:20:03 44° 298° (WNW) 06:27:47 .
XW-2D 26 Jun 06:22:13 06:23:33 12° 91° (E) 06:24:54 145.860 - 145.880
LilacSat-2 26 Jun 06:30:18 06:32:37 15° 93° (E) 06:34:54 437.200
XW-2B 26 Jun 06:30:33 06:32:39 14° 92° (E) 06:34:44 145.730 - 145.750
BEESAT 2 26 Jun 06:31:18 06:35:03 34° 51° (NE) 06:38:46 435.950
STRAND 1 26 Jun 06:36:38 06:39:49 17° 62° (ENE) 06:43:01 437.568
KKS-1 26 Jun 06:38:11 06:40:18 13° 269° (W) 06:42:25 437.445
XW-2C 26 Jun 06:45:18 06:48:18 22° 95° (E) 06:51:16 145.795 - 145.815
O/OREOS (USA 219) 26 Jun 06:50:09 06:53:00 16° 55° (NE) 06:55:51 437.305
DOVE 4 26 Jun 06:54:03 06:59:00 74° 102° (ESE) 07:04:10 437.250
KAITUO 1B 26 Jun 06:58:00 07:01:02 24° 95° (E) 07:04:04 145.475/437.950
CUTE-I 26 Jun 06:58:43 07:03:29 31° 96° (E) 07:08:13 437.470
NO-84 26 Jun 06:59:40 07:02:13 15° 238° (WSW) 07:04:43 435.350 FM
STARS 26 Jun 07:05:43 07:08:18 15° 268° (W) 07:10:53 437.465
BEESAT 3 26 Jun 07:08:46 07:12:20 31° 246° (WSW) 07:15:50 437.485
Tancredo 1 26 Jun 07:26:48 07:28:37 15° 131° (SE) 07:30:27 437.200
AO-85 26 Jun 07:31:19 07:33:06 12° 250° (WSW) 07:34:54 145.980
NUDT-PHONESAT 26 Jun 07:32:23 07:36:04 67° 101° (E) 07:39:43 437.300
CUTE 1.7 + AOD 2 26 Jun 07:32:49 07:34:38 13° 91° (E) 07:36:28 437.475
YUBILEINY 26 Jun 07:38:55 07:42:04 12° 56° (ENE) 07:45:13 435.215
HO-68 26 Jun 07:40:45 07:46:28 25° 94° (E) 07:52:09 435.675
XW-2F 26 Jun 07:49:52 07:53:33 54° 285° (WNW) 07:57:11 145.980 - 146.000
CUBEBUG 2 26 Jun 07:50:49 07:52:17 11° 88° (E) 07:53:45 437.445
ISS 26 Jun 07:53:09 07:55:00 14° 130° (SE) 07:56:52 437.550
XW-2D 26 Jun 07:54:22 07:57:58 43° 287° (WNW) 08:01:32 145.860 - 145.880
XW-2B 26 Jun 08:03:31 08:06:58 35° 288° (WNW) 08:10:23 145.730 - 145.750
LilacSat-2 26 Jun 08:03:34 08:06:59 33° 288° (WNW) 08:10:23 437.200
BEESAT 2 26 Jun 08:09:31 08:12:35 21° 248° (WSW) 08:15:37 435.950
XW-2A 26 Jun 08:13:07 08:15:52 23° 95° (E) 08:18:37 145.665 - 145.685
STRAND 1 26 Jun 08:13:23 08:18:27 62° 259° (WSW) 08:23:35 437.568
XW-2C 26 Jun 08:19:24 08:22:24 23° 291° (WNW) 08:25:24 145.795 - 145.815
RS-15 26 Jun 08:20:48 08:31:20 38° 254° (WSW) 08:41:27 29.354- 29.394
UWE-3 26 Jun 08:22:14 08:24:46 15° 90° (E) 08:27:16 435.000/436.395/437.385
O/OREOS (USA 219) 26 Jun 08:28:22 08:32:43 51° 253° (WSW) 08:37:02 437.305
KAITUO 1B 26 Jun 08:32:07 08:34:55 21° 291° (WNW) 08:37:42 145.475/437.950
DOVE 4 26 Jun 08:33:42 08:36:07 14° 297° (WNW) 08:38:36 437.250
CUTE-I 26 Jun 08:38:42 08:43:28 33° 293° (WNW) 08:48:13 437.470
SEEDS 26 Jun 08:47:52 08:51:58 59° 100° (E) 08:56:04 437.485
Tancredo 1 26 Jun 09:00:58 09:03:56 49° 328° (NNW) 09:06:53 437.200
CUTE 1.7 + AOD 2 26 Jun 09:06:41 09:10:46 51° 286° (WNW) 09:14:49 437.475
TIGRISAT 26 Jun 09:13:13 09:15:24 13° 62° (ENE) 09:17:35 435.000
AO-73 26 Jun 09:15:20 09:19:05 27° 95° (E) 09:22:45 145.935
CUBEBUG 2 26 Jun 09:24:41 09:29:23 69° 285° (WNW) 09:33:57 437.445
FO-29 26 Jun 09:25:52 09:31:20 35° 64° (ENE) 09:37:28 435.910
HO-68 26 Jun 09:27:33 09:34:35 60° 291° (WNW) 09:41:34 435.675
ISS 26 Jun 09:27:54 09:31:08 59° 326° (NW) 09:34:24 437.550
YUBILEINY 26 Jun 09:32:05 09:40:53 64° 79° (E) 09:49:34 435.215
AAUSAT CUBESAT 2 26 Jun 09:36:46 09:40:54 81° 283° (WNW) 09:45:00 437.432
Oscar 11 26 Jun 09:41:22 09:45:25 39° 98° (E) 09:49:26 .
XW-2A 26 Jun 09:46:05 09:48:27 18° 291° (WNW) 09:50:49 145.665 - 145.685
ZACube-1 26 Jun 09:50:18 09:54:46 75° 101° (E) 09:59:06 437.345
UNISAT 6 26 Jun 09:53:09 09:57:20 36° 70° (ENE) 10:01:37 437.425
UWE-3 26 Jun 09:57:04 10:01:32 51° 287° (WNW) 10:05:52 435.000/436.395/437.385
M-CUBED/EXP-1 PRIME 26 Jun 10:04:29 10:07:43 54° 254° (WSW) 10:10:55 437.505
EO-88 26 Jun 10:12:07 10:13:43 12° 92° (E) 10:15:20 145.990 - 145.960
SEEDS 26 Jun 10:25:34 10:27:09 12° 296° (WNW) 10:28:43 437.485
PRISM 26 Jun 10:25:50 10:29:53 84° 76° (ENE) 10:33:58 437.425
Tancredo 1 26 Jun 10:38:30 10:40:04 13° 346° (NNW) 10:41:38 437.200
TIGRISAT 26 Jun 10:46:54 10:51:28 67° 259° (W) 10:56:09 435.000
AO-73 26 Jun 10:51:31 10:55:14 26° 291° (WNW) 10:58:51 145.935
DELFI C3 26 Jun 10:56:37 11:00:34 76° 101° (E) 11:04:30 145.870
ISS 26 Jun 11:06:05 11:08:10 16° 345° (NNW) 11:10:14 437.550
EO-79 26 Jun 11:09:29 11:11:45 14° 64° (ENE) 11:14:02 145.935-145.965
FO-29 26 Jun 11:10:42 11:16:16 39° 265° (W) 11:22:34 435.910
Oscar 11 26 Jun 11:18:19 11:21:14 18° 294° (WNW) 11:24:09 .
HO-68 26 Jun 11:18:44 11:20:51 11° 310° (NW) 11:22:58 435.675
DUCHIFAT 1 26 Jun 11:22:11 11:24:43 16° 65° (ENE) 11:27:16 145.980
ZACube-1 26 Jun 11:29:18 11:30:21 11° 299° (WNW) 11:31:24 437.345
YUBILEINY 26 Jun 11:30:01 11:36:55 27° 278° (W) 11:43:49 435.215
NANOSAT C BR1 26 Jun 11:30:22 11:33:35 21° 67° (ENE) 11:36:50 145.865
UNISAT 6 26 Jun 11:30:32 11:34:07 22° 266° (W) 11:37:45 437.425
EO-88 26 Jun 11:44:10 11:47:34 37° 287° (WNW) 11:50:57 145.990 - 145.960
LO-87 26 Jun 12:03:58 12:07:26 40° 99° (E) 12:10:52 145.935 - 145.965
ESTCUBE 1 26 Jun 12:07:39 12:11:28 27° 96° (E) 12:15:15 437.505/2401.250
POLYITAN 1 26 Jun 12:07:43 12:11:55 62° 74° (ENE) 12:16:10 437.675
AIST 2D 26 Jun 12:07:55 12:11:24 52° 260° (W) 12:14:53 435.315
Tancredo 1 26 Jun 12:16:02 12:16:42 11° 6° (N) 12:17:22 437.200
QB50P2 26 Jun 12:18:33 12:22:49 90° 288° (WNW) 12:27:07 145.880/145.840
BUGSAT 1 26 Jun 12:27:51 12:31:12 24° 68° (ENE) 12:34:35 437.445
PCSat 26 Jun 12:35:22 12:40:47 79° 117° (ESE) 12:46:14 145.827
EO-79 26 Jun 12:42:55 12:47:03 51° 260° (W) 12:51:14 145.935-145.965
ISS 26 Jun 12:44:23 12:45:43 12° 5° (N) 12:47:05 437.550
DUCHIFAT 1 26 Jun 12:55:56 12:59:59 45° 261° (W) 13:04:06 145.980
NANOSAT C BR1 26 Jun 13:05:18 13:09:05 32° 263° (W) 13:12:56 145.865
Oscar 19 26 Jun 13:11:19 13:15:50 32° 68° (ENE) 13:20:20 437.125/150
50 SAT 26 Jun 13:18:21 13:20:04 13° 93° (E) 13:21:46 437.505
AO-7 26 Jun 13:31:28 13:34:42 13° 44° (NE) 13:37:57 .
LO-87 26 Jun 13:38:51 13:40:29 13° 294° (WNW) 13:42:07 145.935 - 145.965
VELOX 1 26 Jun 13:41:20 13:45:45 66° 101° (ESE) 13:50:10 145.980
ESTCUBE 1 26 Jun 13:44:24 13:48:11 27° 291° (WNW) 13:51:58 437.505/2401.250
POLYITAN 1 26 Jun 13:46:59 13:48:05 11° 270° (W) 13:49:11 437.675
Tancredo 1 26 Jun 13:50:34 13:53:08 24° 26° (NNE) 13:55:41 437.200
SPROUT 26 Jun 13:55:32 13:59:51 75° 284° (WNW) 14:04:07 437.525
DX 1 26 Jun 13:58:16 14:02:10 31° 97° (E) 14:06:03 434.975-435.025
BUGSAT 1 26 Jun 14:02:55 14:06:26 27° 264° (W) 14:10:00 437.445
Gurwin Techsat 1B 26 Jun 14:11:11 14:16:27 72° 74° (ENE) 14:21:46 435.225
UKube-1 26 Jun 14:13:30 14:17:21 30° 97° (E) 14:21:10 .
ISS 26 Jun 14:20:17 14:23:06 25° 25° (NNE) 14:25:55 437.550
PCSat 26 Jun 14:21:11 14:24:49 18° 316° (NW) 14:28:28 145.827
SO-50 26 Jun 14:27:37 14:32:02 51° 118° (ESE) 14:36:26 436.795
50 SAT 26 Jun 14:49:54 14:52:56 31° 288° (WNW) 14:55:59 437.505
Oscar 19 26 Jun 14:50:34 14:55:05 30° 264° (W) 14:59:37 437.125/150
AO-7 26 Jun 15:17:37 15:25:39 57° 65° (ENE) 15:33:46 .
VELOX 1 26 Jun 15:19:49 15:21:38 12° 298° (WNW) 15:23:27 145.980
Tancredo 1 26 Jun 15:25:55 15:28:48 39° 222° (SW) 15:31:40 437.200
MOZHAYETS 4 26 Jun 15:26:37 15:27:58 11° 89° (E) 15:29:18
ITAMSAT 1 26 Jun 15:29:24 15:34:24 50° 71° (ENE) 15:39:27 435.822/435.867
DX 1 26 Jun 15:34:44 15:38:10 23° 293° (WNW) 15:41:37 434.975-435.025
UKube-1 26 Jun 15:49:47 15:53:12 23° 293° (WNW) 15:56:36 .
ITUPSAT 1 26 Jun 15:52:58 15:57:19 34° 97° (E) 16:01:38 437.325
Gurwin Techsat 1B 26 Jun 15:54:18 15:56:55 14° 270° (W) 15:59:31 435.225
ISS 26 Jun 15:56:32 15:59:43 45° 222° (SW) 16:02:52 437.550
BEESAT 26 Jun 16:02:08 16:06:41 43° 99° (E) 16:11:12 436.000
